Time,TemperatureF,DewpointF,PressureIn,WindDirection,WindDirectionDegrees,WindSpeedMPH,WindSpeedGustMPH,Humidity,HourlyPrecipIn,Conditions,Clouds,dailyrainin,SoftwareType,DateUTC
2013-07-01 00:01:00,65.8,61.8,29.91,ESE,112,1.7,1.7,87,0.00,SCT,,0.00,WeatherDisplay:10.37,2013-07-01 04:01:00,
2013-07-01 00:02:00,65.7,61.7,29.91,ESE,112,1.4,2.3,87,0.00,BKN,,0.00,WeatherDisplay:10.37,2013-07-01 04:02:00,
2013-07-01 00:07:00,65.7,61.7,29.92,East,90,1.6,2.3,87,0.00,BKN,,0.00,WeatherDisplay:10.37,2013-07-01 04:07:00,
2013-07-01 00:12:00,65.7,62.0,29.92,ESE,112,0.6,2.3,88,0.00,BKN,,0.00,WeatherDisplay:10.37,2013-07-01 04:12:00,
2013-07-01 00:17:00,65.7,62.0,29.92,ESE,112,1.5,2.3,88,0.00,BKN,,0.00,WeatherDisplay:10.37,2013-07-01 04:17:00,
2013-07-01 00:22:00,65.7,62.0,29.92,ENE,68,1.3,2.3,88,0.00,BKN,,0.00,WeatherDisplay:10.37,2013-07-01 04:22:00,
2013-07-01 00:27:00,65.7,62.0,29.92,East,90,1.4,1.4,88,0.00,BKN,,0.00,WeatherDisplay:10.37,2013-07-01 04:27:00,
2013-07-01 00:32:00,65.7,62.0,29.92,East,90,1.7,2.3,88,0.00,BKN,,0.00,WeatherDisplay:10.37,2013-07-01 04:32:00,
2013-07-01 00:37:00,65.7,62.0,29.92,East,90,2.5,3.5,88,0.00,BKN,,0.00,WeatherDisplay:10.37,2013-07-01 04:37:00,
2013-07-01 00:42:00,65.7,62.0,29.92,ESE,112,2.3,2.7,88,0.00,BKN,,0.00,WeatherDisplay:10.37,2013-07-01 04:42:00,
2013-07-01 00:47:00,65.7,62.0,29.92,NE,45,2.7,3.5,88,0.00,BKN,,0.00,WeatherDisplay:10.37,2013-07-01 04:47:00,
2013-07-01 00:52:00,65.7,62.0,29.92,ESE,112,2.2,2.3,88,0.00,BKN,,0.00,WeatherDisplay:10.37,2013-07-01 04:52:00,
2013-07-01 00:57:00,65.7,62.0,29.91,SSE,158,2.8,3.5,88,0.00,BKN,,0.00,WeatherDisplay:10.37,2013-07-01 04:57:00,
2013-07-01 01:02:00,65.8,62.1,29.91,SE,135,3.0,3.5,88,0.00,BKN,,0.00,WeatherDisplay:10.37,2013-07-01 05:02:00,
2013-07-01 01:07:00,65.8,62.1,29.92,ESE,112,2.8,3.5,88,0.00,BKN,,0.00,WeatherDisplay:10.37,2013-07-01 05:07:00,
2013-07-01 01:12:00,65.8,62.1,29.92,ESE,112,1.6,2.3,88,0.00,BKN,,0.00,WeatherDisplay:10.37,2013-07-01 05:12:00,
2013-07-01 01:17:00,65.8,62.1,29.92,SE,135,2.3,3.5,88,0.00,BKN,,0.00,WeatherDisplay:10.37,2013-07-01 05:17:00,
2013-07-01 01:22:00,65.8,62.1,29.92,ESE,112,2.7,3.5,88,0.00,BKN,,0.00,WeatherDisplay:10.37,2013-07-01 05:22:00,
2013-07-01 01:27:00,65.8,62.1,29.92,ESE,112,2.2,2.7,88,0.00,BKN,,0.00,WeatherDisplay:10.37,2013-07-01 05:27:00,
2013-07-01 01:32:00,65.8,62.1,29.92,ESE,112,2.1,2.7,88,0.00,BKN,,0.00,WeatherDisplay:10.37,2013-07-01 05:32:00,
2013-07-01 01:37:00,65.8,62.1,29.92,SE,135,1.4,1.4,88,0.00,BKN,,0.00,WeatherDisplay:10.37,2013-07-01 05:37:00,
2013-07-01 01:42:00,65.8,62.1,29.92,ESE,112,2.0,3.5,88,0.00,BKN,,0.00,WeatherDisplay:10.37,2013-07-01 05:42:00,
2013-07-01 01:47:00,65.8,62.1,29.92,ESE,112,0.3,1.1,88,0.00,BKN,,0.00,WeatherDisplay:10.37,2013-07-01 05:47:00,
2013-07-01 01:52:00,65.8,62.1,29.92,North,360,0.1,1.1,88,0.00,BKN,,0.00,WeatherDisplay:10.37,2013-07-01 05:52:00,
2013-07-01 01:57:00,65.7,62.0,29.93,ESE,112,2.8,3.5,88,0.00,BKN,,0.00,WeatherDisplay:10.37,2013-07-01 05:57:00,
2013-07-01 02:02:00,65.7,62.0,29.93,NNW,338,1.0,2.3,88,0.00,BKN,,0.00,WeatherDisplay:10.37,2013-07-01 06:02:00,
2013-07-01 02:07:00,65.7,62.0,29.92,NE,45,0.8,1.1,88,0.00,BKN,,0.00,WeatherDisplay:10.37,2013-07-01 06:07:00,
2013-07-01 02:12:00,65.7,62.0,29.92,ESE,112,2.7,3.7,88,0.00,BKN,,0.00,WeatherDisplay:10.37,2013-07-01 06:12:00,
2013-07-01 02:17:00,65.7,62.0,29.92,West,270,4.0,4.6,88,0.00,BKN,,0.00,WeatherDisplay:10.37,2013-07-01 06:17:00,
2013-07-01 02:22:00,65.7,62.4,29.92,ESE,112,0.8,2.7,89,0.00,BKN,,0.00,WeatherDisplay:10.37,2013-07-01 06:22:00,
2013-07-01 02:27:00,65.5,62.2,29.92,SSE,158,2.5,2.5,89,0.00,BKN,,0.00,WeatherDisplay:10.37,2013-07-01 06:27:00,
2013-07-01 02:32:00,65.5,62.5,29.92,ESE,112,2.2,2.7,90,0.00,BKN,,0.00,WeatherDisplay:10.37,2013-07-01 06:32:00,
2013-07-01 02:37:00,65.3,62.3,29.92,East,90,2.6,3.7,90,0.00,BKN,,0.00,WeatherDisplay:10.37,2013-07-01 06:37:00,
2013-07-01 02:42:00,65.3,62.6,29.91,East,90,3.1,3.7,91,0.00,BKN,,0.00,WeatherDisplay:10.37,2013-07-01 06:42:00,
2013-07-01 02:47:00,65.1,62.4,29.91,ESE,112,1.6,2.3,91,0.00,BKN,,0.00,WeatherDisplay:10.37,2013-07-01 06:47:00,
2013-07-01 02:52:00,64.9,62.5,29.91,ESE,112,3.6,4.6,92,0.00,BKN,,0.00,WeatherDisplay:10.37,2013-07-01 06:52:00,
2013-07-01 02:57:00,64.8,62.7,29.92,SE,135,2.4,2.4,93,0.00,BKN,,0.00,WeatherDisplay:10.37,2013-07-01 06:57:00,
2013-07-01 03:02:00,64.6,62.5,29.92,East,90,4.8,5.8,93,0.00,BKN,,0.00,WeatherDisplay:10.37,2013-07-01 07:02:00,
2013-07-01 03:07:00,64.6,62.5,29.92,ESE,112,3.6,4.2,93,0.00,BKN,,0.00,WeatherDisplay:10.37,2013-07-01 07:07:00,
2013-07-01 03:12:00,64.6,62.8,29.92,SE,135,1.9,4.6,94,0.00,BKN,,0.00,WeatherDisplay:10.37,2013-07-01 07:12:00,
2013-07-01 03:17:00,64.4,62.6,29.92,East,90,2.6,3.5,94,0.00,BKN,,0.00,WeatherDisplay:10.37,2013-07-01 07:17:00,
2013-07-01 03:22:00,64.4,62.6,29.92,East,90,3.3,3.5,94,0.00,BKN,,0.00,WeatherDisplay:10.37,2013-07-01 07:22:00,
2013-07-01 03:27:00,64.2,62.7,29.92,ESE,112,3.1,4.2,95,0.00,BKN,,0.00,WeatherDisplay:10.37,2013-07-01 07:27:00,
2013-07-01 03:32:00,64.0,62.5,29.91,NE,45,2.0,2.3,95,0.00,BKN,,0.00,WeatherDisplay:10.37,2013-07-01 07:32:00,
2013-07-01 03:37:00,63.9,62.4,29.91,SE,135,1.5,3.5,95,0.00,BKN,,0.00,WeatherDisplay:10.37,2013-07-01 07:37:00,
2013-07-01 03:42:00,63.9,62.4,29.91,East,90,2.8,3.7,95,0.00,BKN,,0.00,WeatherDisplay:10.37,2013-07-01 07:42:00,
2013-07-01 03:47:00,63.7,62.2,29.91,East,90,2.3,2.3,95,0.00,BKN,,0.00,WeatherDisplay:10.37,2013-07-01 07:47:00,
2013-07-01 03:52:00,63.7,62.2,29.91,ESE,112,2.3,2.7,95,0.00,BKN,,0.00,WeatherDisplay:10.37,2013-07-01 07:52:00,
2013-07-01 03:57:00,63.7,62.2,29.91,ESE,112,0.0,0.0,95,0.00,BKN,,0.00,WeatherDisplay:10.37,2013-07-01 07:57:00,
2013-07-01 04:02:00,63.5,62.0,29.91,SSW,202,0.4,1.1,95,0.00,BKN,,0.00,WeatherDisplay:10.37,2013-07-01 08:02:00,
2013-07-01 04:07:00,63.5,62.0,29.92,SW,225,0.0,0.0,95,0.00,BKN,,0.00,WeatherDisplay:10.37,2013-07-01 08:07:00,
2013-07-01 04:12:00,63.3,61.8,29.92,SE,135,1.3,2.3,95,0.00,BKN,,0.00,WeatherDisplay:10.37,2013-07-01 08:12:00,
2013-07-01 04:17:00,63.3,61.8,29.92,NNE,22,0.0,0.0,95,0.00,BKN,,0.00,WeatherDisplay:10.37,2013-07-01 08:17:00,
2013-07-01 04:22:00,63.1,61.6,29.92,East,90,0.4,1.1,95,0.00,BKN,,0.00,WeatherDisplay:10.37,2013-07-01 08:22:00,
2013-07-01 04:27:00,63.1,61.6,29.92,East,90,1.7,2.3,95,0.00,BKN,,0.00,WeatherDisplay:10.37,2013-07-01 08:27:00,
2013-07-01 04:32:00,63.1,61.6,29.91,ENE,68,1.7,1.7,95,0.00,BKN,,0.00,WeatherDisplay:10.37,2013-07-01 08:32:00,
2013-07-01 04:37:00,63.1,61.6,29.91,ESE,112,1.7,2.2,95,0.00,BKN,,0.00,WeatherDisplay:10.37,2013-07-01 08:37:00,
2013-07-01 04:42:00,63.1,61.6,29.92,ESE,112,1.5,2.3,95,0.00,BKN,,0.00,WeatherDisplay:10.37,2013-07-01 08:42:00,
2013-07-01 04:47:00,63.1,61.6,29.92,East,90,2.1,2.3,95,0.00,BKN,,0.00,WeatherDisplay:10.37,2013-07-01 08:47:00,
2013-07-01 04:52:00,63.1,61.6,29.92,ENE,68,2.1,2.7,95,0.00,BKN,,0.00,WeatherDisplay:10.37,2013-07-01 08:52:00,
2013-07-01 04:57:00,63.1,61.6,29.93,ESE,112,1.1,2.7,95,0.00,BKN,,0.00,WeatherDisplay:10.37,2013-07-01 08:57:00,
2013-07-01 05:02:00,63.0,61.5,29.93,ESE,112,1.9,2.3,95,0.00,BKN,,0.00,WeatherDisplay:10.37,2013-07-01 09:02:00,
2013-07-01 05:07:00,63.0,61.5,29.93,East,90,1.7,2.3,95,0.00,BKN,,0.00,WeatherDisplay:10.37,2013-07-01 09:07:00,
2013-07-01 05:12:00,63.0,61.5,29.93,SSE,158,2.3,2.3,95,0.00,BKN,,0.00,WeatherDisplay:10.37,2013-07-01 09:12:00,
2013-07-01 05:17:00,63.0,61.5,29.93,SE,135,2.0,2.3,95,0.00,BKN,,0.00,WeatherDisplay:10.37,2013-07-01 09:17:00,
2013-07-01 05:22:00,63.0,61.5,29.94,ESE,112,2.8,3.5,95,0.00,BKN,,0.00,WeatherDisplay:10.37,2013-07-01 09:22:00,
2013-07-01 05:27:00,63.0,61.5,29.94,ESE,112,2.9,3.5,95,0.00,BKN,,0.00,WeatherDisplay:10.37,2013-07-01 09:27:00,
2013-07-01 05:32:00,63.0,61.5,29.94,ESE,112,2.6,3.5,95,0.00,BKN,,0.00,WeatherDisplay:10.37,2013-07-01 09:32:00,
2013-07-01 05:37:00,63.0,61.5,29.94,ESE,112,3.1,4.6,95,0.00,BKN,,0.00,WeatherDisplay:10.37,2013-07-01 09:37:00,
2013-07-01 05:42:00,63.0,61.5,29.95,ENE,68,3.1,3.5,95,0.00,BKN,,0.00,WeatherDisplay:10.37,2013-07-01 09:42:00,
2013-07-01 05:47:00,63.0,61.5,29.95,NE,45,3.6,4.6,95,0.00,BKN,,0.00,WeatherDisplay:10.37,2013-07-01 09:47:00,
2013-07-01 05:52:00,63.0,61.5,29.95,ESE,112,3.2,4.2,95,0.00,BKN,,0.00,WeatherDisplay:10.37,2013-07-01 09:52:00,
2013-07-01 05:57:00,63.0,61.5,29.95,ESE,112,3.8,4.6,95,0.00,BKN,,0.00,WeatherDisplay:10.37,2013-07-01 09:57:00,
2013-07-01 06:02:00,63.1,61.6,29.95,ESE,112,3.4,5.8,95,0.00,BKN,,0.00,WeatherDisplay:10.37,2013-07-01 10:02:00,
2013-07-01 06:07:00,63.1,61.6,29.95,ESE,112,3.5,4.6,95,0.00,BKN,,0.00,WeatherDisplay:10.37,2013-07-01 10:07:00,
2013-07-01 06:12:00,63.3,61.8,29.95,ENE,68,4.2,4.6,95,0.00,BKN,,0.00,WeatherDisplay:10.37,2013-07-01 10:12:00,
2013-07-01 06:17:00,63.3,61.8,29.95,ESE,112,2.7,3.5,95,0.00,BKN,,0.00,WeatherDisplay:10.37,2013-07-01 10:17:00,
2013-07-01 06:22:00,63.3,61.8,29.95,NNE,22,2.9,6.3,95,0.00,BKN,,0.00,WeatherDisplay:10.37,2013-07-01 10:22:00,
2013-07-01 06:27:00,63.5,62.0,29.95,East,90,2.9,4.2,95,0.00,BKN,,0.00,WeatherDisplay:10.37,2013-07-01 10:27:00,
2013-07-01 06:32:00,63.7,62.2,29.95,SE,135,3.8,5.8,95,0.00,BKN,,0.00,WeatherDisplay:10.37,2013-07-01 10:32:00,
2013-07-01 06:37:00,63.7,62.2,29.95,East,90,4.6,5.8,95,0.00,BKN,,0.00,WeatherDisplay:10.37,2013-07-01 10:37:00,
2013-07-01 06:42:00,63.9,62.4,29.95,East,90,3.6,4.6,95,0.00,BKN,,0.00,WeatherDisplay:10.37,2013-07-01 10:42:00,
2013-07-01 06:47:00,63.9,62.4,29.95,ESE,112,4.4,5.8,95,0.00,BKN,,0.00,WeatherDisplay:10.37,2013-07-01 10:47:00,
2013-07-01 06:52:00,63.9,62.4,29.95,SE,135,3.5,4.6,95,0.00,BKN,,0.00,WeatherDisplay:10.37,2013-07-01 10:52:00,
2013-07-01 06:57:00,64.0,62.5,29.95,WNW,292,3.1,4.6,95,0.00,BKN,,0.00,WeatherDisplay:10.37,2013-07-01 10:57:00,
2013-07-01 07:02:00,64.0,62.5,29.95,ESE,112,4.0,4.6,95,0.00,BKN,,0.00,WeatherDisplay:10.37,2013-07-01 11:02:00,
2013-07-01 07:07:00,64.2,62.7,29.95,ESE,112,5.4,5.8,95,0.00,BKN,,0.00,WeatherDisplay:10.37,2013-07-01 11:07:00,
2013-07-01 07:12:00,64.4,62.6,29.95,NE,45,2.8,4.6,94,0.00,BKN,,0.00,WeatherDisplay:10.37,2013-07-01 11:12:00,
2013-07-01 07:17:00,64.4,62.6,29.96,ESE,112,2.9,4.6,94,0.00,BKN,,0.00,WeatherDisplay:10.37,2013-07-01 11:17:00,
2013-07-01 07:22:00,64.6,62.8,29.96,SSE,158,1.9,2.3,94,0.00,BKN,,0.00,WeatherDisplay:10.37,2013-07-01 11:22:00,
2013-07-01 07:27:00,64.8,62.7,29.96,East,90,3.0,5.8,93,0.00,BKN,,0.00,WeatherDisplay:10.37,2013-07-01 11:27:00,
2013-07-01 07:32:00,64.9,62.8,29.96,East,90,2.4,3.5,93,0.00,BKN,,0.00,WeatherDisplay:10.37,2013-07-01 11:32:00,
2013-07-01 07:37:00,65.1,62.7,29.96,NNE,22,3.3,3.5,92,0.00,BKN,,0.00,WeatherDisplay:10.37,2013-07-01 11:37:00,
2013-07-01 07:42:00,65.1,62.7,29.96,ESE,112,5.1,8.1,92,0.00,BKN,,0.00,WeatherDisplay:10.37,2013-07-01 11:42:00,
2013-07-01 07:47:00,65.3,62.9,29.96,East,90,5.1,6.3,92,0.00,BKN,,0.00,WeatherDisplay:10.37,2013-07-01 11:47:00,
2013-07-01 07:52:00,65.5,62.8,29.96,East,90,4.0,5.8,91,0.00,BKN,,0.00,WeatherDisplay:10.37,2013-07-01 11:52:00,
2013-07-01 07:57:00,65.8,63.1,29.96,ESE,112,3.4,5.8,91,0.00,BKN,,0.00,WeatherDisplay:10.37,2013-07-01 11:57:00,
2013-07-01 08:02:00,66.0,63.3,29.96,South,180,4.1,5.3,91,0.00,OVC,,0.00,WeatherDisplay:10.37,2013-07-01 12:02:00,
2013-07-01 08:07:00,65.8,62.8,29.96,ESE,112,5.8,6.8,90,0.00,OVC,,0.00,WeatherDisplay:10.37,2013-07-01 12:07:00,
2013-07-01 08:12:00,65.8,62.8,29.96,NE,45,5.5,8.1,90,0.00,OVC,,0.00,WeatherDisplay:10.37,2013-07-01 12:12:00,
2013-07-01 08:17:00,66.0,63.0,29.95,NE,45,6.3,8.1,90,0.00,OVC,,0.00,WeatherDisplay:10.37,2013-07-01 12:17:00,
2013-07-01 08:22:00,66.2,63.2,29.95,ENE,68,5.2,7.3,90,0.00,OVC,,0.00,WeatherDisplay:10.37,2013-07-01 12:22:00,
2013-07-01 08:27:00,66.4,63.1,29.95,SE,135,6.2,8.1,89,0.00,OVC,,0.00,WeatherDisplay:10.37,2013-07-01 12:27:00,
2013-07-01 08:32:00,66.6,63.3,29.95,South,180,5.4,5.8,89,0.00,OVC,,0.00,WeatherDisplay:10.37,2013-07-01 12:32:00,
2013-07-01 08:37:00,66.2,62.5,29.95,East,90,8.2,9.2,88,0.00,OVC,,0.00,WeatherDisplay:10.37,2013-07-01 12:37:00,
2013-07-01 08:42:00,66.4,63.1,29.96,SSE,158,4.9,6.3,89,0.00,OVC,,0.00,WeatherDisplay:10.37,2013-07-01 12:42:00,
2013-07-01 08:47:00,66.4,63.1,29.96,East,90,6.2,8.1,89,0.00,OVC,,0.00,WeatherDisplay:10.37,2013-07-01 12:47:00,
2013-07-01 08:52:00,66.4,63.1,29.96,East,90,6.8,8.1,89,0.00,OVC,,0.00,WeatherDisplay:10.37,2013-07-01 12:52:00,
2013-07-01 08:57:00,66.6,63.3,29.96,ESE,112,5.8,6.9,89,0.00,OVC,,0.00,WeatherDisplay:10.37,2013-07-01 12:57:00,
2013-07-01 09:02:00,66.9,63.2,29.96,ESE,112,4.7,5.3,88,0.00,OVC,,0.00,WeatherDisplay:10.37,2013-07-01 13:02:00,
2013-07-01 09:07:00,67.3,63.6,29.97,ESE,112,3.8,4.7,88,0.00,OVC,,0.00,WeatherDisplay:10.37,2013-07-01 13:07:00,
2013-07-01 09:12:00,67.5,63.5,29.97,East,90,4.9,6.9,87,0.00,OVC,,0.00,WeatherDisplay:10.37,2013-07-01 13:12:00,
2013-07-01 09:17:00,67.8,63.5,29.97,ESE,112,4.8,5.8,86,0.00,OVC,,0.00,WeatherDisplay:10.37,2013-07-01 13:17:00,
2013-07-01 09:22:00,67.8,63.5,29.97,ESE,112,4.9,5.8,86,0.00,OVC,,0.00,WeatherDisplay:10.37,2013-07-01 13:22:00,
2013-07-01 09:27:00,67.6,62.9,29.97,ESE,112,5.4,6.9,85,0.00,OVC,,0.00,WeatherDisplay:10.37,2013-07-01 13:27:00,
2013-07-01 09:32:00,67.3,62.6,29.97,ENE,68,7.5,8.1,85,0.00,OVC,,0.00,WeatherDisplay:10.37,2013-07-01 13:32:00,
2013-07-01 09:37:00,67.5,63.2,29.97,East,90,7.2,7.3,86,0.00,OVC,,0.00,WeatherDisplay:10.37,2013-07-01 13:37:00,
2013-07-01 09:42:00,68.2,63.5,29.97,ESE,112,5.1,6.9,85,0.00,OVC,,0.00,WeatherDisplay:10.37,2013-07-01 13:42:00,
2013-07-01 09:47:00,69.1,64.1,29.97,ESE,112,5.0,5.8,84,0.00,OVC,,0.00,WeatherDisplay:10.37,2013-07-01 13:47:00,
2013-07-01 09:52:00,68.7,63.3,29.97,NE,45,6.4,6.9,83,0.00,OVC,,0.00,WeatherDisplay:10.37,2013-07-01 13:52:00,
2013-07-01 09:57:00,68.5,63.1,29.97,ESE,112,5.9,8.8,83,0.00,OVC,,0.00,WeatherDisplay:10.37,2013-07-01 13:57:00,
2013-07-01 10:02:00,68.4,63.0,29.97,ESE,112,7.5,9.2,83,0.00,OVC,,0.00,WeatherDisplay:10.37,2013-07-01 14:02:00,
2013-07-01 10:07:00,68.4,63.0,29.97,ESE,112,7.8,10.4,83,0.00,OVC,,0.00,WeatherDisplay:10.37,2013-07-01 14:07:00,
2013-07-01 10:12:00,68.9,63.2,29.97,ENE,68,6.6,8.1,82,0.00,OVC,,0.00,WeatherDisplay:10.37,2013-07-01 14:12:00,
2013-07-01 10:17:00,69.1,63.0,29.96,ESE,112,6.3,10.4,81,0.00,OVC,,0.00,WeatherDisplay:10.37,2013-07-01 14:17:00,
2013-07-01 10:22:00,69.6,63.2,29.96,ENE,68,7.2,7.8,80,0.00,OVC,,0.00,WeatherDisplay:10.37,2013-07-01 14:22:00,
2013-07-01 10:27:00,70.2,63.7,29.96,SE,135,5.9,8.3,80,0.00,OVC,,0.00,WeatherDisplay:10.37,2013-07-01 14:27:00,
2013-07-01 10:32:00,70.9,63.7,29.96,SE,135,6.5,6.9,78,0.00,OVC,,0.00,WeatherDisplay:10.37,2013-07-01 14:32:00,
2013-07-01 10:37:00,70.7,63.1,29.96,South,180,9.3,10.4,77,0.00,OVC,,0.00,WeatherDisplay:10.37,2013-07-01 14:37:00,
2013-07-01 10:42:00,70.3,63.1,29.96,ESE,112,5.9,10.4,78,0.00,OVC,,0.00,WeatherDisplay:10.37,2013-07-01 14:42:00,
2013-07-01 10:47:00,70.3,63.1,29.96,ESE,112,5.8,5.8,78,0.00,OVC,,0.00,WeatherDisplay:10.37,2013-07-01 14:47:00,
2013-07-01 10:52:00,70.9,63.7,29.96,SE,135,5.9,8.1,78,0.00,OVC,,0.00,WeatherDisplay:10.37,2013-07-01 14:52:00,
2013-07-01 10:57:00,70.5,63.3,29.96,NNE,22,7.6,8.1,78,0.00,OVC,,0.00,WeatherDisplay:10.37,2013-07-01 14:57:00,
2013-07-01 11:02:00,70.2,63.0,29.96,ESE,112,6.1,10.4,78,0.00,OVC,,0.00,WeatherDisplay:10.37,2013-07-01 15:02:00,
2013-07-01 11:07:00,70.2,63.4,29.97,East,90,6.0,6.0,79,0.00,OVC,,0.00,WeatherDisplay:10.37,2013-07-01 15:07:00,
2013-07-01 11:12:00,70.0,63.2,29.97,East,90,5.2,6.9,79,0.00,OVC,,0.00,WeatherDisplay:10.37,2013-07-01 15:12:00,
2013-07-01 11:17:00,69.6,62.8,29.97,SSE,158,7.0,8.1,79,0.00,OVC,,0.00,WeatherDisplay:10.37,2013-07-01 15:17:00,
2013-07-01 11:22:00,69.6,62.8,29.97,SSE,158,7.3,8.1,79,0.00,OVC,,0.00,WeatherDisplay:10.37,2013-07-01 15:22:00,
2013-07-01 11:27:00,69.6,62.8,29.97,North,360,6.9,8.3,79,0.00,OVC,,0.00,WeatherDisplay:10.37,2013-07-01 15:27:00,
2013-07-01 11:32:00,69.6,62.8,29.97,East,90,4.3,5.3,79,0.00,OVC,,0.00,WeatherDisplay:10.37,2013-07-01 15:32:00,
2013-07-01 11:37:00,69.6,62.8,29.97,East,90,5.7,7.3,79,0.00,OVC,,0.00,WeatherDisplay:10.37,2013-07-01 15:37:00,
2013-07-01 11:42:00,69.6,62.8,29.98,North,360,7.0,8.1,79,0.00,OVC,,0.00,WeatherDisplay:10.37,2013-07-01 15:42:00,
2013-07-01 11:47:00,69.4,63.0,29.98,North,360,5.0,9.2,80,0.00,OVC,,0.00,WeatherDisplay:10.37,2013-07-01 15:47:00,
2013-07-01 11:52:00,69.4,63.0,29.98,ESE,112,4.4,7.3,80,0.00,OVC,,0.00,WeatherDisplay:10.37,2013-07-01 15:52:00,
2013-07-01 11:57:00,69.4,63.0,29.98,East,90,6.7,9.2,80,0.00,OVC,,0.00,WeatherDisplay:10.37,2013-07-01 15:57:00,
2013-07-01 12:02:00,69.4,63.0,29.98,SE,135,8.3,9.9,80,0.00,OVC,,0.00,WeatherDisplay:10.37,2013-07-01 16:02:00,
2013-07-01 12:07:00,69.4,63.0,29.98,NE,45,6.6,9.4,80,0.00,OVC,,0.00,WeatherDisplay:10.37,2013-07-01 16:07:00,
2013-07-01 12:12:00,69.4,63.0,29.98,SE,135,5.2,6.9,80,0.00,OVC,,0.00,WeatherDisplay:10.37,2013-07-01 16:12:00,
2013-07-01 12:17:00,69.4,63.3,29.98,ENE,68,4.7,5.8,81,0.00,OVC,,0.00,WeatherDisplay:10.37,2013-07-01 16:17:00,
2013-07-01 12:22:00,69.3,63.2,29.98,NE,45,4.7,6.9,81,0.00,OVC,,0.00,WeatherDisplay:10.37,2013-07-01 16:22:00,
2013-07-01 12:27:00,69.3,62.9,29.98,ESE,112,7.0,9.2,80,0.00,OVC,,0.00,WeatherDisplay:10.37,2013-07-01 16:27:00,
2013-07-01 12:32:00,69.1,62.7,29.98,ESE,112,8.3,10.4,80,0.00,OVC,,0.00,WeatherDisplay:10.37,2013-07-01 16:32:00,
2013-07-01 12:37:00,68.9,62.8,29.98,SE,135,6.0,10.4,81,0.00,OVC,,0.00,WeatherDisplay:10.37,2013-07-01 16:37:00,
2013-07-01 12:42:00,68.5,62.4,29.98,NNW,338,7.0,8.3,81,0.00,OVC,,0.00,WeatherDisplay:10.37,2013-07-01 16:42:00,
2013-07-01 12:47:00,68.5,62.8,29.98,ESE,112,6.5,8.3,82,0.00,OVC,,0.00,WeatherDisplay:10.37,2013-07-01 16:47:00,
2013-07-01 12:52:00,68.5,63.1,29.98,East,90,4.7,8.3,83,0.00,OVC,,0.00,WeatherDisplay:10.37,2013-07-01 16:52:00,
2013-07-01 12:57:00,68.4,63.0,29.99,ESE,112,5.0,5.8,83,0.00,OVC,,0.00,WeatherDisplay:10.37,2013-07-01 16:57:00,
2013-07-01 13:02:00,68.2,62.8,29.99,NNE,22,7.7,9.2,83,0.00,OVC,,0.00,WeatherDisplay:10.37,2013-07-01 17:02:00,
2013-07-01 13:07:00,68.2,63.2,29.99,South,180,4.3,6.9,84,0.00,OVC,,0.00,WeatherDisplay:10.37,2013-07-01 17:07:00,
2013-07-01 13:12:00,68.2,63.2,29.99,ESE,112,4.9,6.3,84,0.00,-RA,,0.00,WeatherDisplay:10.37,2013-07-01 17:12:00,
2013-07-01 13:17:00,68.0,63.3,29.99,ESE,112,4.8,6.3,85,0.00,-RA,,0.00,WeatherDisplay:10.37,2013-07-01 17:17:00,
2013-07-01 13:22:00,68.0,63.3,29.98,East,90,5.0,6.3,85,0.00,-RA,,0.00,WeatherDisplay:10.37,2013-07-01 17:22:00,
2013-07-01 13:27:00,67.5,62.5,29.98,NE,45,8.3,10.4,84,0.00,-RA,,0.00,WeatherDisplay:10.37,2013-07-01 17:27:00,
2013-07-01 13:32:00,67.5,62.8,29.98,ESE,112,6.8,10.4,85,0.00,-RA,,0.00,WeatherDisplay:10.37,2013-07-01 17:32:00,
2013-07-01 13:37:00,67.3,63.0,29.98,ESE,112,4.6,6.8,86,0.00,-RA,,0.00,WeatherDisplay:10.37,2013-07-01 17:37:00,
2013-07-01 13:42:00,67.5,63.5,29.98,NE,45,5.5,5.8,87,0.00,-RA,,0.00,WeatherDisplay:10.37,2013-07-01 17:42:00,
2013-07-01 13:47:00,66.9,62.9,29.98,NNE,22,4.7,7.3,87,0.00,-RA,,0.00,WeatherDisplay:10.37,2013-07-01 17:47:00,
2013-07-01 13:52:00,66.7,63.0,29.98,SE,135,2.1,4.6,88,0.00,-RA,,0.00,WeatherDisplay:10.37,2013-07-01 17:52:00,
2013-07-01 13:57:00,66.4,62.7,29.99,ESE,112,6.1,6.8,88,0.00,-RA,,0.00,WeatherDisplay:10.37,2013-07-01 17:57:00,
2013-07-01 14:02:00,66.2,62.9,29.99,SE,135,4.1,6.9,89,0.00,-RA,,0.00,WeatherDisplay:10.37,2013-07-01 18:02:00,
2013-07-01 14:07:00,66.0,63.0,29.99,ESE,112,4.1,5.8,90,0.00,-RA,,0.00,WeatherDisplay:10.37,2013-07-01 18:07:00,
2013-07-01 14:12:00,65.8,63.1,29.99,South,180,4.1,5.8,91,0.00,-RA,,0.00,WeatherDisplay:10.37,2013-07-01 18:12:00,
2013-07-01 14:17:00,65.5,62.8,29.99,NNW,338,5.7,6.9,91,0.01,-RA,,0.01,WeatherDisplay:10.37,2013-07-01 18:17:00,
2013-07-01 14:22:00,65.1,62.4,29.99,East,90,4.5,6.9,91,0.01,-RA,,0.01,WeatherDisplay:10.37,2013-07-01 18:22:00,
2013-07-01 14:27:00,64.9,62.8,29.99,ESE,112,3.3,4.6,93,0.01,-RA,,0.01,WeatherDisplay:10.37,2013-07-01 18:27:00,
2013-07-01 14:32:00,64.6,62.5,30.00,South,180,3.9,6.9,93,0.02,-RA,,0.02,WeatherDisplay:10.37,2013-07-01 18:32:00,
2013-07-01 14:37:00,64.4,62.6,30.00,West,270,2.8,5.8,94,0.03,-RA,,0.03,WeatherDisplay:10.37,2013-07-01 18:37:00,
2013-07-01 14:42:00,64.2,62.4,29.99,NE,45,4.5,5.8,94,0.04,-RA,,0.04,WeatherDisplay:10.37,2013-07-01 18:42:00,
2013-07-01 14:47:00,64.0,62.2,29.99,ESE,112,5.4,6.8,94,0.05,-RA,,0.05,WeatherDisplay:10.37,2013-07-01 18:47:00,
2013-07-01 14:52:00,63.9,62.4,29.99,North,360,0.9,3.5,95,0.05,-RA,,0.06,WeatherDisplay:10.37,2013-07-01 18:52:00,
2013-07-01 14:57:00,63.9,62.4,30.00,SE,135,2.8,3.2,95,0.07,-RA,,0.07,WeatherDisplay:10.37,2013-07-01 18:57:00,
2013-07-01 15:02:00,64.0,62.5,30.00,SE,135,3.0,3.7,95,0.08,-RA,,0.08,WeatherDisplay:10.37,2013-07-01 19:02:00,
2013-07-01 15:07:00,64.0,62.5,30.00,ENE,68,2.3,2.7,95,0.09,-RA,,0.09,WeatherDisplay:10.37,2013-07-01 19:07:00,
2013-07-01 15:12:00,64.2,62.7,30.00,ESE,112,2.7,3.7,95,0.11,-RA,,0.11,WeatherDisplay:10.37,2013-07-01 19:12:00,
2013-07-01 15:17:00,64.4,62.9,30.00,SSE,158,1.6,3.2,95,0.12,-RA,,0.13,WeatherDisplay:10.37,2013-07-01 19:17:00,
2013-07-01 15:22:00,64.2,62.7,30.00,ENE,68,3.1,4.6,95,0.12,-RA,,0.13,WeatherDisplay:10.37,2013-07-01 19:22:00,
2013-07-01 15:27:00,64.2,62.7,30.00,ESE,112,4.8,5.8,95,0.13,-RA,,0.14,WeatherDisplay:10.37,2013-07-01 19:27:00,
2013-07-01 15:32:00,64.2,62.7,30.00,ESE,112,1.0,4.6,95,0.12,-RA,,0.14,WeatherDisplay:10.37,2013-07-01 19:32:00,
2013-07-01 15:37:00,64.6,63.1,30.00,NE,45,3.2,5.8,95,0.11,-RA,,0.14,WeatherDisplay:10.37,2013-07-01 19:37:00,
2013-07-01 15:42:00,64.6,62.8,29.99,ENE,68,3.3,5.8,94,0.11,-RA,,0.15,WeatherDisplay:10.37,2013-07-01 19:42:00,
2013-07-01 15:47:00,64.8,63.0,29.99,ESE,112,2.9,3.5,94,0.10,-RA,,0.15,WeatherDisplay:10.37,2013-07-01 19:47:00,
2013-07-01 15:52:00,64.8,63.0,29.99,South,180,3.9,5.8,94,0.10,-RA,,0.15,WeatherDisplay:10.37,2013-07-01 19:52:00,
2013-07-01 15:57:00,64.9,63.1,29.98,ESE,112,5.3,6.9,94,0.08,-RA,,0.15,WeatherDisplay:10.37,2013-07-01 19:57:00,
2013-07-01 16:02:00,64.9,63.1,29.98,SSW,202,5.7,7.8,94,0.07,-RA,,0.15,WeatherDisplay:10.37,2013-07-01 20:02:00,
2013-07-01 16:07:00,64.9,63.1,29.99,NE,45,3.9,5.3,94,0.06,-RA,,0.15,WeatherDisplay:10.37,2013-07-01 20:07:00,
2013-07-01 16:12:00,64.9,63.4,29.99,East,90,2.9,5.8,95,0.04,-RA,,0.15,WeatherDisplay:10.37,2013-07-01 20:12:00,
2013-07-01 16:17:00,64.8,63.3,29.99,NE,45,3.3,4.7,95,0.02,-RA,,0.15,WeatherDisplay:10.37,2013-07-01 20:17:00,
2013-07-01 16:22:00,64.8,63.3,29.99,NE,45,1.9,5.8,95,0.02,-RA,,0.15,WeatherDisplay:10.37,2013-07-01 20:22:00,
2013-07-01 16:27:00,64.8,63.3,29.99,NNE,22,2.9,4.6,95,0.01,-RA,,0.15,WeatherDisplay:10.37,2013-07-01 20:27:00,
2013-07-01 16:32:00,64.8,63.3,29.99,ENE,68,3.1,5.8,95,0.01,-RA,,0.15,WeatherDisplay:10.37,2013-07-01 20:32:00,
2013-07-01 16:37:00,64.9,63.4,29.99,East,90,3.9,5.8,95,0.01,-RA,,0.15,WeatherDisplay:10.37,2013-07-01 20:37:00,
2013-07-01 16:42:00,65.1,63.6,29.99,NE,45,1.5,2.3,95,0.00,-RA,,0.15,WeatherDisplay:10.37,2013-07-01 20:42:00,
2013-07-01 16:47:00,65.3,63.8,29.99,NE,45,5.0,5.8,95,0.00,-RA,,0.15,WeatherDisplay:10.37,2013-07-01 20:47:00,
2013-07-01 16:52:00,65.1,63.6,29.99,ENE,68,4.0,5.3,95,0.00,-RA,,0.15,WeatherDisplay:10.37,2013-07-01 20:52:00,
2013-07-01 16:57:00,65.3,63.8,29.98,NW,315,2.2,2.7,95,0.00,-RA,,0.15,WeatherDisplay:10.37,2013-07-01 20:57:00,
2013-07-01 17:02:00,65.3,63.8,29.98,ESE,112,1.3,3.5,95,0.00,-RA,,0.15,WeatherDisplay:10.37,2013-07-01 21:02:00,
2013-07-01 17:07:00,65.3,63.8,29.99,ENE,68,2.6,3.5,95,0.00,-RA,,0.15,WeatherDisplay:10.37,2013-07-01 21:07:00,
2013-07-01 17:12:00,65.1,63.6,29.99,NE,45,1.9,3.5,95,0.00,-RA,,0.15,WeatherDisplay:10.37,2013-07-01 21:12:00,
2013-07-01 17:17:00,65.1,63.6,29.99,East,90,2.7,3.5,95,0.00,-RA,,0.15,WeatherDisplay:10.37,2013-07-01 21:17:00,
2013-07-01 17:22:00,65.1,63.6,29.99,SE,135,3.3,4.6,95,0.00,-RA,,0.15,WeatherDisplay:10.37,2013-07-01 21:22:00,
2013-07-01 17:27:00,65.1,63.6,29.99,SSW,202,0.8,4.6,95,0.00,-RA,,0.15,WeatherDisplay:10.37,2013-07-01 21:27:00,
2013-07-01 17:32:00,65.1,63.6,30.00,West,270,2.1,4.2,95,0.00,-RA,,0.15,WeatherDisplay:10.37,2013-07-01 21:32:00,
2013-07-01 17:37:00,65.1,63.6,30.00,ENE,68,2.3,2.7,95,0.00,-RA,,0.15,WeatherDisplay:10.37,2013-07-01 21:37:00,
2013-07-01 17:42:00,65.1,63.6,30.00,ENE,68,3.8,5.8,95,0.00,-RA,,0.15,WeatherDisplay:10.37,2013-07-01 21:42:00,
2013-07-01 17:47:00,65.1,63.6,30.00,East,90,2.6,3.5,95,0.00,-RA,,0.15,WeatherDisplay:10.37,2013-07-01 21:47:00,
2013-07-01 17:52:00,65.1,63.6,30.00,East,90,3.0,4.6,95,0.00,-RA,,0.15,WeatherDisplay:10.37,2013-07-01 21:52:00,
2013-07-01 17:57:00,65.1,63.6,30.00,ESE,112,1.5,2.7,95,0.00,-RA,,0.15,WeatherDisplay:10.37,2013-07-01 21:57:00,
2013-07-01 18:02:00,65.1,63.6,30.00,ESE,112,3.3,5.8,95,0.00,-RA,,0.15,WeatherDisplay:10.37,2013-07-01 22:02:00,
2013-07-01 18:07:00,65.1,63.6,30.00,East,90,6.1,6.9,95,0.00,-RA,,0.15,WeatherDisplay:10.37,2013-07-01 22:07:00,
2013-07-01 18:12:00,65.1,63.6,30.00,East,90,3.9,6.9,95,0.00,OVC,,0.15,WeatherDisplay:10.37,2013-07-01 22:12:00,
2013-07-01 18:17:00,65.1,63.6,30.00,ESE,112,3.6,4.6,95,0.00,OVC,,0.15,WeatherDisplay:10.37,2013-07-01 22:17:00,
2013-07-01 18:22:00,65.1,63.6,30.00,WSW,248,4.3,5.3,95,0.00,OVC,,0.15,WeatherDisplay:10.37,2013-07-01 22:22:00,
2013-07-01 18:27:00,64.9,63.4,30.00,ESE,112,4.3,5.8,95,0.00,OVC,,0.15,WeatherDisplay:10.37,2013-07-01 22:27:00,
2013-07-01 18:32:00,64.9,63.4,30.00,ESE,112,4.1,5.8,95,0.00,OVC,,0.15,WeatherDisplay:10.37,2013-07-01 22:32:00,
2013-07-01 18:37:00,64.8,63.3,30.00,East,90,4.7,5.8,95,0.00,OVC,,0.15,WeatherDisplay:10.37,2013-07-01 22:37:00,
2013-07-01 18:42:00,64.8,63.3,30.01,West,270,3.2,4.6,95,0.00,OVC,,0.15,WeatherDisplay:10.37,2013-07-01 22:42:00,
2013-07-01 18:47:00,64.6,63.1,30.01,ESE,112,3.8,4.7,95,0.00,OVC,,0.15,WeatherDisplay:10.37,2013-07-01 22:47:00,
2013-07-01 18:52:00,64.4,62.9,30.01,West,270,2.4,3.5,95,0.00,OVC,,0.15,WeatherDisplay:10.37,2013-07-01 22:52:00,
2013-07-01 18:57:00,64.4,62.9,30.02,East,90,2.7,3.5,95,0.00,OVC,,0.15,WeatherDisplay:10.37,2013-07-01 22:57:00,
2013-07-01 19:02:00,64.2,62.7,30.02,East,90,2.8,5.8,95,0.00,-DZ,,0.15,WeatherDisplay:10.37,2013-07-01 23:02:00,
2013-07-01 19:07:00,64.2,62.7,30.01,NE,45,4.2,5.3,95,0.00,-DZ,,0.15,WeatherDisplay:10.37,2013-07-01 23:07:00,
2013-07-01 19:12:00,64.0,62.5,30.01,NE,45,5.3,6.3,95,0.00,-DZ,,0.15,WeatherDisplay:10.37,2013-07-01 23:12:00,
2013-07-01 19:17:00,64.0,62.5,30.01,ESE,112,4.5,6.8,95,0.00,-DZ,,0.15,WeatherDisplay:10.37,2013-07-01 23:17:00,
2013-07-01 19:22:00,63.9,62.4,30.01,East,90,2.4,5.8,95,0.00,-DZ,,0.15,WeatherDisplay:10.37,2013-07-01 23:22:00,
2013-07-01 19:27:00,63.9,62.4,30.01,NNE,22,3.3,5.8,95,0.00,-DZ,,0.15,WeatherDisplay:10.37,2013-07-01 23:27:00,
2013-07-01 19:32:00,63.9,62.4,30.01,West,270,4.1,5.8,95,0.00,-DZ,,0.15,WeatherDisplay:10.37,2013-07-01 23:32:00,
2013-07-01 19:37:00,63.9,62.4,30.01,ESE,112,4.2,4.6,95,0.00,-DZ,,0.15,WeatherDisplay:10.37,2013-07-01 23:37:00,
2013-07-01 19:42:00,63.7,62.2,30.02,ESE,112,3.7,5.8,95,0.00,-DZ,,0.15,WeatherDisplay:10.37,2013-07-01 23:42:00,
2013-07-01 19:47:00,63.7,62.2,30.02,NE,45,3.3,3.7,95,0.00,-DZ,,0.15,WeatherDisplay:10.37,2013-07-01 23:47:00,
2013-07-01 19:52:00,63.7,62.2,30.02,WNW,292,3.2,4.6,95,0.00,-DZ,,0.15,WeatherDisplay:10.37,2013-07-01 23:52:00,
2013-07-01 19:57:00,63.5,62.0,30.02,East,90,3.6,5.8,95,0.00,-DZ,,0.15,WeatherDisplay:10.37,2013-07-01 23:57:00,
2013-07-01 20:02:00,63.5,62.0,30.02,SE,135,3.2,5.8,95,0.00,-DZ,,0.15,WeatherDisplay:10.37,2013-07-02 00:02:00,
2013-07-01 20:07:00,63.5,62.0,30.02,NE,45,4.1,5.8,95,0.00,-DZ,,0.15,WeatherDisplay:10.37,2013-07-02 00:07:00,
2013-07-01 20:12:00,63.3,61.8,30.02,ESE,112,5.9,8.1,95,0.00,-DZ,,0.15,WeatherDisplay:10.37,2013-07-02 00:12:00,
2013-07-01 20:17:00,63.3,61.8,30.02,East,90,6.9,9.2,95,0.00,-DZ,,0.15,WeatherDisplay:10.37,2013-07-02 00:17:00,
2013-07-01 20:22:00,63.1,61.6,30.02,East,90,6.1,9.2,95,0.00,-DZ,,0.15,WeatherDisplay:10.37,2013-07-02 00:22:00,
2013-07-01 20:27:00,63.0,61.5,30.02,NE,45,5.2,8.1,95,0.00,-DZ,,0.15,WeatherDisplay:10.37,2013-07-02 00:27:00,
2013-07-01 20:32:00,62.8,61.3,30.03,NE,45,5.1,5.8,95,0.00,-DZ,,0.15,WeatherDisplay:10.37,2013-07-02 00:32:00,
2013-07-01 20:37:00,62.8,61.3,30.03,ESE,112,5.9,5.9,95,0.00,-DZ,,0.15,WeatherDisplay:10.37,2013-07-02 00:37:00,
2013-07-01 20:42:00,62.6,61.1,30.03,ENE,68,4.4,6.9,95,0.00,-DZ,,0.15,WeatherDisplay:10.37,2013-07-02 00:42:00,
2013-07-01 20:47:00,62.4,60.9,30.03,ESE,112,3.8,5.8,95,0.00,-DZ,,0.15,WeatherDisplay:10.37,2013-07-02 00:47:00,
2013-07-01 20:52:00,62.4,60.9,30.04,East,90,6.4,7.3,95,0.00,-DZ,,0.15,WeatherDisplay:10.37,2013-07-02 00:52:00,
2013-07-01 20:57:00,62.2,60.8,30.04,ESE,112,5.9,6.9,95,0.00,-DZ,,0.15,WeatherDisplay:10.37,2013-07-02 00:57:00,
2013-07-01 21:02:00,62.2,60.8,30.04,South,180,4.0,5.8,95,0.00,-DZ,,0.15,WeatherDisplay:10.37,2013-07-02 01:02:00,
2013-07-01 21:07:00,62.1,60.7,30.04,ESE,112,4.5,8.1,95,0.00,-DZ,,0.15,WeatherDisplay:10.37,2013-07-02 01:07:00,
2013-07-01 21:12:00,62.1,60.7,30.04,ESE,112,3.7,5.8,95,0.00,-DZ,,0.15,WeatherDisplay:10.37,2013-07-02 01:12:00,
2013-07-01 21:17:00,62.1,60.7,30.04,East,90,3.6,3.7,95,0.00,-DZ,,0.15,WeatherDisplay:10.37,2013-07-02 01:17:00,
2013-07-01 21:22:00,62.1,60.7,30.04,East,90,3.1,3.5,95,0.00,-RA,,0.15,WeatherDisplay:10.37,2013-07-02 01:22:00,
2013-07-01 21:27:00,62.1,60.7,30.04,East,90,3.3,4.6,95,0.01,-RA,,0.16,WeatherDisplay:10.37,2013-07-02 01:27:00,
2013-07-01 21:32:00,61.9,60.5,30.04,ESE,112,4.7,8.1,95,0.01,-RA,,0.16,WeatherDisplay:10.37,2013-07-02 01:32:00,
2013-07-01 21:37:00,61.7,60.3,30.04,WSW,248,3.0,5.8,95,0.01,-RA,,0.16,WeatherDisplay:10.37,2013-07-02 01:37:00,
2013-07-01 21:42:00,61.7,60.3,30.04,ESE,112,3.0,4.6,95,0.01,-RA,,0.16,WeatherDisplay:10.37,2013-07-02 01:42:00,
2013-07-01 21:47:00,61.5,60.1,30.04,ESE,112,3.0,4.6,95,0.01,-RA,,0.16,WeatherDisplay:10.37,2013-07-02 01:47:00,
2013-07-01 21:52:00,61.5,60.1,30.05,East,90,3.7,3.7,95,0.01,-RA,,0.16,WeatherDisplay:10.37,2013-07-02 01:52:00,
2013-07-01 21:57:00,61.2,59.8,30.05,SSW,202,2.9,4.6,95,0.01,-RA,,0.16,WeatherDisplay:10.37,2013-07-02 01:57:00,
2013-07-01 22:02:00,61.2,59.8,30.05,ESE,112,4.7,4.7,95,0.01,-RA,,0.16,WeatherDisplay:10.37,2013-07-02 02:02:00,
2013-07-01 22:07:00,61.0,59.6,30.05,SE,135,5.2,6.9,95,0.01,-RA,,0.16,WeatherDisplay:10.37,2013-07-02 02:07:00,
2013-07-01 22:12:00,60.8,59.4,30.05,SE,135,4.8,8.1,95,0.01,-RA,,0.16,WeatherDisplay:10.37,2013-07-02 02:12:00,
2013-07-01 22:17:00,60.8,59.4,30.05,ESE,112,5.4,6.9,95,0.01,-RA,,0.16,WeatherDisplay:10.37,2013-07-02 02:17:00,
2013-07-01 22:22:00,60.8,59.4,30.05,ESE,112,3.8,4.6,95,0.01,-RA,,0.16,WeatherDisplay:10.37,2013-07-02 02:22:00,
2013-07-01 22:27:00,60.8,59.4,30.05,East,90,3.5,5.3,95,0.00,-RA,,0.16,WeatherDisplay:10.37,2013-07-02 02:27:00,
2013-07-01 22:32:00,60.8,59.4,30.04,ESE,112,3.0,3.7,95,0.00,-RA,,0.16,WeatherDisplay:10.37,2013-07-02 02:32:00,
2013-07-01 22:37:00,60.6,59.2,30.04,North,360,3.4,4.6,95,0.00,-RA,,0.16,WeatherDisplay:10.37,2013-07-02 02:37:00,
2013-07-01 22:42:00,60.6,59.2,30.05,ESE,112,6.0,7.8,95,0.00,-RA,,0.16,WeatherDisplay:10.37,2013-07-02 02:42:00,
2013-07-01 22:47:00,60.6,59.2,30.05,ESE,112,4.9,6.9,95,0.00,-RA,,0.16,WeatherDisplay:10.37,2013-07-02 02:47:00,
2013-07-01 22:52:00,60.6,59.2,30.05,East,90,4.4,5.8,95,0.00,-RA,,0.16,WeatherDisplay:10.37,2013-07-02 02:52:00,
2013-07-01 22:57:00,60.6,59.2,30.05,East,90,2.0,3.5,95,0.00,-RA,,0.16,WeatherDisplay:10.37,2013-07-02 02:57:00,
2013-07-01 23:02:00,60.4,59.0,30.05,NNE,22,3.7,4.6,95,0.00,-RA,,0.16,WeatherDisplay:10.37,2013-07-02 03:02:00,
2013-07-01 23:07:00,60.4,59.0,30.05,East,90,3.5,3.5,95,0.00,-RA,,0.16,WeatherDisplay:10.37,2013-07-02 03:07:00,
2013-07-01 23:12:00,60.4,59.0,30.05,SSW,202,4.7,5.8,95,0.00,-DZ,,0.16,WeatherDisplay:10.37,2013-07-02 03:12:00,
2013-07-01 23:17:00,60.4,59.0,30.05,ENE,68,2.5,3.2,95,0.00,-DZ,,0.16,WeatherDisplay:10.37,2013-07-02 03:17:00,
2013-07-01 23:22:00,60.4,59.0,30.05,West,270,3.9,5.8,95,0.00,-DZ,,0.16,WeatherDisplay:10.37,2013-07-02 03:22:00,
2013-07-01 23:27:00,60.4,59.0,30.05,ESE,112,4.3,6.9,95,0.00,-DZ,,0.16,WeatherDisplay:10.37,2013-07-02 03:27:00,
2013-07-01 23:32:00,60.4,59.0,30.05,SSE,158,3.9,5.8,95,0.00,-DZ,,0.16,WeatherDisplay:10.37,2013-07-02 03:32:00,
2013-07-01 23:37:00,60.4,59.0,30.05,East,90,4.5,5.8,95,0.00,-DZ,,0.16,WeatherDisplay:10.37,2013-07-02 03:37:00,
2013-07-01 23:42:00,60.4,59.0,30.04,NE,45,2.7,3.5,95,0.00,-DZ,,0.16,WeatherDisplay:10.37,2013-07-02 03:42:00,
2013-07-01 23:47:00,60.4,59.0,30.04,ESE,112,2.7,4.2,95,0.00,-DZ,,0.16,WeatherDisplay:10.37,2013-07-02 03:47:00,
2013-07-01 23:52:00,60.4,59.0,30.04,ENE,68,5.6,6.8,95,0.00,-DZ,,0.16,WeatherDisplay:10.37,2013-07-02 03:52:00,
2013-07-01 23:57:00,60.4,59.0,30.04,ESE,112,3.1,4.6,95,0.00,-DZ,,0.16,WeatherDisplay:10.37,2013-07-02 03:57:00,